sat.trackr.live / text

‹ back to catalog

STARLINK-35938

NORAD 66644 · 2025-271AD

PAYLOAD ACTIVE UNKNOWN

§ Identity

Operator
Country
US
Launch date
2025-11-23
Launch site
AFWTR
Launch vehicle
Mass (kg)
RCS (m²)

Purposes: comms

External: N2YO · Heavens-Above · Gunter

§ Orbital elements

Epoch: 2026-05-24T23:40:34.731840Z

Period
94.10 min
Inclination
53.1582°
Eccentricity
0.0001309
Mean motion
15.30206756 rev/d
Perigee alt
474.3 km
Apogee alt
476.1 km
Semi-major
6,853.3 km
B*
3.7330e-4
RAAN
145.8508°
Arg perigee
82.2954°
Mean anomaly
277.8195°
Rev number
2,924

§ Raw data

STARLINK-359381 66644U 25271AD  26144.98651310  .00010715  00000+0  37330-3 0  99952 66644  53.1582 145.8508 0001309  82.2954 277.8195 15.30206756 29247

JSON: /api/v1/satellites/66644 · /tle

For live sub-satellite position, see the globe view (requires WebGL).

§ Visibility from observer

Set your observer location to see the next 7 days of passes ≥ 10°. The values pass through the URL so the page stays shareable.

No JS? Fill the form by hand. The geolocation button needs JavaScript.